• Em Portugal
  • Lista de países
  • Para 7 dias
  • Temperatura da água
  • Mapas de satélite
  • Mapa do tempo
  • Widgets de tempo
  • user-avatar
    Iniciar Sessão

    Previsão horária em Glowczewice

    Hoje, 17 Agosto, Sexta-feira

    Tempo Temperatura Precipitação Vento Pressão Humidade
    00:00 +18°C° 0 mm 2 m/s 749 mmHg 69%
    01:00 +18°C° 0 mm 2 m/s 749 mmHg 71%
    02:00 +17°C° 0 mm 2 m/s 749 mmHg 72%
    03:00 +17°C° 0 mm 2 m/s 749 mmHg 73%
    04:00 +17°C° 0 mm 2 m/s 748 mmHg 74%
    05:00 +18°C° 0 mm 3 m/s 749 mmHg 71%
    06:00 +19°C° 0 mm 3 m/s 749 mmHg 67%
    07:00 +21°C° 0 mm 3 m/s 749 mmHg 67%
    08:00 +22°C° 0 mm 3 m/s 749 mmHg 60%
    09:00 +25°C° 0 mm 3 m/s 749 mmHg 54%
    10:00 +27°C° 0 mm 4 m/s 749 mmHg 48%
    11:00 +27°C° 0 mm 3 m/s 749 mmHg 46%
    12:00 +28°C° 0 mm 3 m/s 748 mmHg 45%
    13:00 +28°C° 0 mm 3 m/s 748 mmHg 43%
    14:00 +28°C° 0 mm 3 m/s 748 mmHg 45%
    15:00 +28°C° 0 mm 3 m/s 748 mmHg 46%
    16:00 +28°C° 0 mm 3 m/s 747 mmHg 47%
    17:00 +26°C° 0 mm 2 m/s 747 mmHg 52%
    18:00 +25°C° 0 mm 2 m/s 747 mmHg 57%
    19:00 +24°C° 0 mm 2 m/s 747 mmHg 62%
    20:00 +23°C° 0 mm 2 m/s 747 mmHg 65%
    21:00 +21°C° 0 mm 2 m/s 747 mmHg 69%
    22:00 +20°C° 0 mm 2 m/s 748 mmHg 72%
    23:00 +20°C° 0,1 mm 2 m/s 748 mmHg 75%

    Amanhã, 18 Agosto, Sábado

    Tempo Temperatura Precipitação Vento Pressão Humidade
    00:00 +19°C° 0,1 mm 2 m/s 748 mmHg 78%
    01:00 +20°C° 0,1 mm 1 m/s 748 mmHg 81%
    02:00 +20°C° 0 mm 1 m/s 748 mmHg 82%
    03:00 +20°C° 0 mm 1 m/s 748 mmHg 84%
    04:00 +19°C° 0 mm 1 m/s 748 mmHg 86%
    05:00 +20°C° 0 mm 1 m/s 749 mmHg 85%
    06:00 +19°C° 0 mm 2 m/s 749 mmHg 84%
    07:00 +20°C° 0 mm 2 m/s 749 mmHg 83%
    08:00 +21°C° 0,5 mm 2 m/s 749 mmHg 78%
    09:00 +23°C° 0,5 mm 2 m/s 750 mmHg 72%
    10:00 +24°C° 0,5 mm 3 m/s 750 mmHg 66%
    11:00 +25°C° 0,4 mm 3 m/s 750 mmHg 61%
    12:00 +26°C° 0,4 mm 3 m/s 750 mmHg 57%
    13:00 +26°C° 0,4 mm 3 m/s 750 mmHg 52%
    14:00 +26°C° 0 mm 3 m/s 750 mmHg 52%
    15:00 +26°C° 0 mm 3 m/s 750 mmHg 51%
    16:00 +25°C° 0 mm 3 m/s 750 mmHg 51%
    17:00 +24°C° 0 mm 3 m/s 750 mmHg 56%
    18:00 +21°C° 0 mm 3 m/s 750 mmHg 61%
    19:00 +19°C° 0 mm 2 m/s 750 mmHg 66%
    20:00 +18°C° 0 mm 2 m/s 750 mmHg 68%
    21:00 +17°C° 0 mm 2 m/s 751 mmHg 70%
    22:00 +16°C° 0 mm 1 m/s 751 mmHg 71%
    23:00 +16°C° 0 mm 1 m/s 751 mmHg 71%

    Depois de amanhã, 19 Agosto, Domingo

    Tempo Temperatura Precipitação Vento Pressão Humidade
    00:00 +16°C° 0 mm 1 m/s 751 mmHg 71%
    01:00 +16°C° 0 mm 1 m/s 751 mmHg 70%
    02:00 +15°C° 0 mm 1 m/s 751 mmHg 70%
    03:00 +15°C° 0 mm 2 m/s 751 mmHg 71%
    04:00 +15°C° 0 mm 2 m/s 750 mmHg 71%
    05:00 +16°C° 0 mm 2 m/s 751 mmHg 69%
    06:00 +17°C° 0 mm 2 m/s 751 mmHg 67%
    07:00 +18°C° 0 mm 2 m/s 751 mmHg 65%
    08:00 +20°C° 0 mm 3 m/s 751 mmHg 59%
    09:00 +22°C° 0 mm 3 m/s 751 mmHg 53%
    10:00 +25°C° 0 mm 3 m/s 751 mmHg 47%
    11:00 +25°C° 0 mm 3 m/s 751 mmHg 46%
    12:00 +26°C° 0 mm 3 m/s 751 mmHg 45%
    13:00 +27°C° 0 mm 3 m/s 751 mmHg 44%
    14:00 +27°C° 0 mm 3 m/s 751 mmHg 45%
    15:00 +27°C° 0 mm 3 m/s 750 mmHg 47%
    16:00 +27°C° 0 mm 3 m/s 750 mmHg 48%
    17:00 +25°C° 0 mm 2 m/s 750 mmHg 55%
    18:00 +23°C° 0 mm 2 m/s 750 mmHg 62%
    19:00 +22°C° 0 mm 1 m/s 750 mmHg 69%
    20:00 +21°C° 0 mm 1 m/s 750 mmHg 72%
    21:00 +20°C° 0 mm 1 m/s 750 mmHg 75%
    22:00 +19°C° 0 mm 1 m/s 750 mmHg 79%
    23:00 +19°C° 0 mm 1 m/s 749 mmHg 79%

    20 Agosto, Segunda-feira

    Tempo Temperatura Precipitação Vento Pressão Humidade
    00:00 +19°C° 0 mm 1 m/s 749 mmHg 80%
    01:00 +19°C° 0 mm 1 m/s 749 mmHg 80%
    02:00 +19°C° 0 mm 1 m/s 749 mmHg 81%
    03:00 +19°C° 0 mm 1 m/s 749 mmHg 81%
    04:00 +18°C° 0 mm 2 m/s 748 mmHg 81%
    05:00 +19°C° 0 mm 2 m/s 749 mmHg 77%
    06:00 +20°C° 0 mm 2 m/s 749 mmHg 72%
    07:00 +21°C° 0 mm 2 m/s 749 mmHg 67%
    08:00 +24°C° 0 mm 2 m/s 749 mmHg 60%
    09:00 +26°C° 0 mm 3 m/s 749 mmHg 53%
    10:00 +28°C° 0 mm 3 m/s 749 mmHg 46%
    11:00 +28°C° 0 mm 3 m/s 748 mmHg 45%
    12:00 +28°C° 0 mm 3 m/s 748 mmHg 44%
    13:00 +29°C° 0 mm 3 m/s 748 mmHg 43%
    14:00 +28°C° 0 mm 3 m/s 748 mmHg 46%
    15:00 +28°C° 0 mm 2 m/s 748 mmHg 49%
    16:00 +27°C° 0 mm 2 m/s 747 mmHg 51%
    17:00 +26°C° 0,2 mm 2 m/s 747 mmHg 59%
    18:00 +24°C° 0,2 mm 2 m/s 747 mmHg 66%
    19:00 +21°C° 0,2 mm 2 m/s 747 mmHg 73%
    20:00 +21°C° 0,3 mm 2 m/s 747 mmHg 77%
    21:00 +21°C° 0,3 mm 1 m/s 747 mmHg 81%
    22:00 +20°C° 0,3 mm 1 m/s 747 mmHg 85%
    23:00 +20°C° 0 mm 1 m/s 747 mmHg 85%

    21 Agosto, Terça-feira

    Tempo Temperatura Precipitação Vento Pressão Humidade
    00:00 +20°C° 0 mm 1 m/s 747 mmHg 86%
    01:00 +20°C° 0 mm 1 m/s 747 mmHg 86%
    02:00 +20°C° 0,3 mm 1 m/s 747 mmHg 87%
    03:00 +20°C° 0,3 mm 1 m/s 747 mmHg 88%
    04:00 +20°C° 0,3 mm 1 m/s 747 mmHg 89%
    05:00 +20°C° 0,2 mm 1 m/s 747 mmHg 87%
    06:00 +21°C° 0,2 mm 1 m/s 747 mmHg 85%
    07:00 +21°C° 0,2 mm 1 m/s 747 mmHg 83%
    08:00 +21°C° 0 mm 2 m/s 747 mmHg 76%
    09:00 +24°C° 0 mm 3 m/s 748 mmHg 70%
    10:00 +25°C° 0 mm 4 m/s 748 mmHg 64%
    11:00 +25°C° 0,2 mm 4 m/s 748 mmHg 62%
    12:00 +25°C° 0,2 mm 5 m/s 748 mmHg 61%
    13:00 +25°C° 0,2 mm 5 m/s 748 mmHg 59%
    14:00 +25°C° 0 mm 5 m/s 748 mmHg 55%
    15:00 +25°C° 0 mm 5 m/s 748 mmHg 50%
    16:00 +23°C° 0 mm 5 m/s 748 mmHg 46%
    17:00 +22°C° 0 mm 4 m/s 748 mmHg 51%
    18:00 +20°C° 0 mm 3 m/s 748 mmHg 56%
    19:00 +18°C° 0 mm 3 m/s 748 mmHg 60%
    20:00 +18°C° 0 mm 2 m/s 748 mmHg 65%
    21:00 +17°C° 0 mm 2 m/s 748 mmHg 69%
    22:00 +16°C° 0 mm 2 m/s 749 mmHg 74%
    23:00 +16°C° 0 mm 2 m/s 749 mmHg 76%

    22 Agosto, Quarta-feira

    Tempo Temperatura Precipitação Vento Pressão Humidade
    00:00 +16°C° 0 mm 2 m/s 749 mmHg 78%
    01:00 +16°C° 0 mm 2 m/s 749 mmHg 80%
    02:00 +16°C° 0 mm 2 m/s 748 mmHg 80%
    03:00 +16°C° 0 mm 2 m/s 748 mmHg 80%
    04:00 +16°C° 0 mm 2 m/s 748 mmHg 81%
    05:00 +17°C° 0 mm 3 m/s 748 mmHg 76%
    06:00 +18°C° 0 mm 3 m/s 748 mmHg 71%
    07:00 +19°C° 0 mm 4 m/s 748 mmHg 66%
    08:00 +20°C° 0 mm 4 m/s 748 mmHg 63%
    09:00 +22°C° 0 mm 4 m/s 748 mmHg 60%
    10:00 +23°C° 0 mm 4 m/s 748 mmHg 57%
    11:00 +23°C° 0 mm 4 m/s 748 mmHg 59%
    12:00 +23°C° 0 mm 4 m/s 748 mmHg 60%
    13:00 +23°C° 0 mm 4 m/s 748 mmHg 62%
    14:00 +23°C° 0,1 mm 4 m/s 748 mmHg 60%
    15:00 +25°C° 0,1 mm 4 m/s 748 mmHg 57%
    16:00 +25°C° 0,1 mm 4 m/s 748 mmHg 55%
    17:00 +24°C° 0 mm 3 m/s 748 mmHg 60%
    18:00 +21°C° 0 mm 3 m/s 748 mmHg 66%
    19:00 +20°C° 0 mm 2 m/s 748 mmHg 71%
    20:00 +19°C° 0 mm 2 m/s 748 mmHg 75%
    21:00 +18°C° 0 mm 2 m/s 748 mmHg 79%
    22:00 +17°C° 0 mm 2 m/s 749 mmHg 83%
    23:00 +17°C° 0 mm 2 m/s 749 mmHg 86%
    Mostrar mais